Location: Caltech
(34.1382°N, 118.1253°W)
Time: 22:43:57
(UTC-07:00)

Cosmos 1939 Rocket - Visible Passes

Search period start: 26 May 2015 00:00
Search period end: 05 June 2015 00:00
Orbit: 535 x 591 km, 97.6° (Epoch: 26 May)

Date Brightness Start Highest point End Pass type
(mag) Time Alt. Az. Time Alt. Az. Time Alt. Az.
26 May 2.9 21:19:28 29° SE 21:21:15 58° ENE 21:25:05 10° N visible
27 May 2.9 21:19:16 28° SE 21:21:06 58° ENE 21:24:56 10° N visible
28 May 2.9 21:19:04 27° SE 21:20:57 58° ENE 21:24:48 10° N visible
29 May 2.9 21:18:52 26° SE 21:20:48 57° ENE 21:24:39 10° N visible
30 May 2.9 21:18:39 26° SE 21:20:39 57° ENE 21:24:31 10° N visible
31 May 2.9 21:18:27 25° SE 21:20:30 57° ENE 21:24:22 10° N visible
01 Jun 2.9 21:18:15 24° SE 21:20:21 57° ENE 21:24:13 10° N visible
02 Jun 2.9 21:18:02 24° SE 21:20:11 57° ENE 21:24:04 10° N visible
03 Jun 2.9 21:17:50 23° SE 21:20:02 56° ENE 21:23:55 10° N visible
04 Jun 2.9 21:17:38 23° SSE 21:19:53 56° ENE 21:23:46 10° N visible
